ROMMA est une association bénévole à but non lucratif. Votre soutien est indispensable : ADHERER à ROMMA ou FAIRE un DON

Val-d'Isère - (73, Savoie)

Haute-Maurienne (1850 m)   Longitude: 6° 58' 52'' E   Latitude: 45° 26' 53'' N Station partenaire n°93
 

Détail journalier du     <<     >>

Température Precipitation Humidité Vent Dir Rafale Dir. rafale Ensol.
Heure (°C) (mm) (%) (km/h) (km/h) (min)
01:00 6.302811E31E0
02:00 5.803010ENE37ESE0
03:00 5.303611NNE45NO0
04:00 4.904612ENE31E0
05:00 5.303913NE32ESE0
06:00 5.10419E31ESE0
07:00 5.304311E40NO30
08:00 5.704110E29NNO60
09:00 6.403611E40E60
10:00 6.804011NE39NO60
11:00 7.904110E37NNO60
12:00 8.604111E35NNO60
13:00 7.804511ESE44NO60
14:00 7.904512NO44NO30
15:00 7.305012S48NNO0
16:00 7.605013SE42ONO0
17:00 7.604710E27O0
18:00 7.205211SSE42O0
19:00 6.604916O52NO0
20:00 5.705011E31NNO0
21:00 4.705013SO45NO0
22:00 3.406211NO37O0
23:00 3.806110S39ESE0
minuit 3.606811O37NNO0

Graphique du 22-04-2019

 

Serveur OMMA